Tracking 19246 objects as of 19-Aug-2018
HD Live streaming from Space Station
objects crossing your sky now

TIROS 4

Track TIROS 4 now!
10-day predictions
TIROS 4 is classified as:


NORAD ID: 226
Int'l Code: 1962-002A
Perigee: 691.6 km
Apogee: 802.6 km
Inclination: 48.3 °
Period: 99.6 minutes
Semi major axis: 7118 km
RCS: 0.8251 m2 (medium)
Launch date: February 8, 1962
Source: United States (US)
Launch site: AIR FORCE EASTERN TEST RANGE (AFETR)
aabbcc
Your satellite tracking list
Your tracking list is empty




NASA's NSSDC Master Catalog

Two Line Element Set (TLE):
1 00226U 62002A   18230.08268248 -.00000142  00000-0  87544-5 0  9993
2 00226  48.2976 335.1359 0078018   4.3554 355.8008 14.45626430975401
Source of the keplerian elements: AFSPC